Location: *
(51.5000°N, 0.1100°W)
Time: 19:37:07
(UTC+00:00)

Daily predictions for brighter satellites

Satellite Brightness Start Highest point End
(mag) Time Altitude Azimuth Time Altitude Azimuth Time Altitude Azimuth
BREEZE M DEB (TANK) 4.1 20:00:17 10° SW 20:03:56 55° SSE 20:15:18 10° ENE
S3M 4.3 20:06:47 10° SSE 20:12:58 54° E 20:19:07 10° NNE
Cosmos 1666 Rocket 4.3 20:11:07 10° N 20:15:17 38° ENE 20:19:23 10° SE
USA 215 4.0 20:13:54 10° ENE 20:20:16 56° N 20:26:38 10° W
USA 305 3.4 20:18:35 10° WNW 20:22:49 62° N 20:27:04 10° E
Cosmos 1933 3.8 20:19:26 10° SSE 20:23:14 41° E 20:27:02 10° NNE
USA 245 3.5 20:23:48 10° ESE 20:25:39 22° ENE 20:27:29 10° NNE
Cosmos 1242 Rocket 3.2 20:25:25 10° SSE 20:28:43 35° E 20:32:00 10° NNE
OBJECT-B 3.1 20:26:23 10° SSW 20:29:04 24° W 20:31:48 10° NW
BREEZE M DEB (TANK) 2.3 20:25:01 10° W 20:31:31 68° S 20:34:01 10° ESE
Cosmos 1553 Rocket 4.1 20:25:25 10° S 20:31:33 85° W 20:37:51 10° N
Cosmos 1437 Rocket 2.7 20:28:46 10° S 20:32:38 87° E 20:36:37 10° NNE
Resurs 01 Rocket 1.8 20:31:01 10° SSE 20:35:29 79° WSW 20:39:57 10° NNW
Sich 1 3.1 20:33:21 10° NNW 20:37:42 84° W 20:42:03 10° S
COSMOS 2406 4.0 20:33:07 10° NNW 20:38:32 42° NE 20:43:43 11° ESE
Spot 2 Rocket 3.9 20:34:16 10° SE 20:39:08 51° ENE 20:44:02 10° N
Meteor 1-20 Rocket 4.3 20:35:01 10° NNW 20:40:42 88° W 20:46:15 10° S
Cosmos 2082 Rocket 3.6 20:36:14 10° NNW 20:41:04 28° NE 20:45:54 10° E
USA 306 3.2 20:37:44 10° WNW 20:41:59 66° N 20:46:15 10° E
CZ-4C R/B 3.1 20:36:40 10° NW 20:43:29 67° NE 20:51:18 11° ESE
Cosmos 1500 4.0 20:40:50 10° N 20:44:20 35° ENE 20:47:10 14° SE
Gbstr 26 Del rocket 4.3 20:37:46 10° WSW 20:45:44 84° SSE 20:52:34 10° E
Cosmos 1782 3.3 20:43:32 10° SSE 20:47:18 41° E 20:51:05 10° NNE
ERS-1 Rocket 3.4 20:50:52 13° SE 20:55:04 48° ENE 20:59:54 10° N
Cosmos 1503 Rocket 4.0 20:51:56 10° S 20:57:02 64° ESE 21:02:13 10° NNE
SPOT 5 3.5 20:52:52 14° SE 20:57:04 49° ENE 21:02:09 10° N
ERBS 4.1 20:55:15 10° WNW 20:58:15 31° N 21:01:17 10° ENE
Intercosmos 24 3.9 20:55:42 10° SSW 20:59:25 69° WNW 21:03:01 10° N
SOZ 4.2 20:57:00 10° WSW 20:59:35 57° SSE 21:01:50 10° E
USA 290 3.3 20:57:01 10° NW 21:00:06 40° WSW 21:02:57 11° S
CREW DRAGON DEMO-1 DEB 2.4 21:00:01 10° W 21:02:41 89° N 21:04:38 16° E
Cosmos 1151 Rocket 3.1 20:58:25 10° S 21:02:43 62° E 21:07:04 10° NNE
Cosmos 1602 3.8 20:58:54 10° NNW 21:02:46 78° W 21:06:20 12° S
Terra 2.5 21:02:23 16° SE 21:05:52 41° ENE 21:10:21 10° N
USA 307 3.1 21:03:04 10° WNW 21:07:21 73° NNE 21:11:26 11° E
Cosmos 2278 Rocket 3.2 21:05:44 15° SSE 21:09:19 27° ESE 21:14:00 10° NE
CZ-2C R/B 3.6 21:06:57 10° NNE 21:11:26 90° ESE 21:15:57 10° SSW
SL-4 R/B 4.5 21:15:59 10° WSW 21:18:22 14° SW 21:20:49 10° SSW
X-37B 2.1 21:17:09 10° WSW 21:19:39 21° SSW 21:20:10 20° S
Cosmos 1515 Rocket 4.0 21:17:35 19° SSE 21:20:28 45° E 21:24:42 10° NNE
USA 308 3.0 21:16:33 10° WNW 21:20:52 79° NNE 21:24:24 15° ESE
SWARM C 4.5 21:17:38 10° N 21:20:57 70° E 21:22:52 23° SSE
SWARM A 4.2 21:17:44 10° N 21:21:04 73° E 21:23:01 23° SSE
Cosmos 1844 Rocket 3.3 21:15:51 10° SW 21:21:21 60° NW 21:26:55 10° NNE
Cosmos 2084 4.0 21:17:53 10° S 21:21:33 33° SE 21:25:23 10° ENE
SPOT 1/Viking Rocket 4.0 21:16:47 11° S 21:21:48 60° WSW 21:26:58 10° NNW
Cosmos 1536 4.4 21:18:34 10° NNE 21:21:51 23° ENE 21:23:48 16° ESE
ARIANE 5 R/B 2.7 21:20:39 16° S 21:24:06 73° WSW 21:28:26 10° NNW
JB-3 4.3 21:21:10 10° NNE 21:25:06 65° E 21:27:55 17° S
Cosmos 1437 2.3 21:25:47 25° S 21:27:14 72° ESE 21:30:06 10° NNE
Cosmos 1633 Rocket 3.7 21:23:14 10° NNW 21:27:32 54° W 21:31:23 13° S
Cosmos 1354 Rocket 4.0 21:23:06 10° SSW 21:28:21 86° WNW 21:33:40 10° NNE
Cosmos 1812 2.7 21:31:31 22° S 21:33:48 61° E 21:37:38 10° NNE
Cosmos 1470 Rocket 3.7 21:32:20 10° NNW 21:36:49 73° W 21:39:57 19° S
Cosmos 2184 Rocket 4.1 21:30:51 10° N 21:37:06 68° ENE 21:41:19 21° SSE
Meteor 1-5 Rocket 4.1 21:32:50 10° NNW 21:38:20 89° W 21:42:00 21° S
Cosmos 1328 Rocket 3.8 21:36:50 10° SSW 21:41:15 70° WNW 21:45:41 10° N
NOSS 3-4 (A) 3.9 21:34:28 10° NW 21:41:18 76° NE 21:47:02 19° SE
NOSS 3-4 (C) 3.9 21:34:35 10° NW 21:41:24 75° NE 21:47:09 19° SE
ATLAS 5 CENTAUR R/B 3.3 21:37:44 10° WNW 21:42:52 37° WSW 21:47:13 17° S
Cosmos 2074 Rocket 4.0 21:38:44 10° N 21:45:05 79° E 21:49:22 22° SSE
CARTOSAT-1 4.3 21:44:07 17° S 21:47:14 47° W 21:51:26 10° NNW
Cosmos 1666 2.6 21:46:46 10° NNW 21:50:31 84° W 21:52:11 31° S
Cosmos 1933 Rocket 3.6 21:47:02 10° NNW 21:51:23 77° W 21:53:49 26° S
Cosmos 1833 Rocket 2.8 21:46:39 10° NNW 21:52:18 70° WSW 21:55:42 25° SSE
NOSS 3-3 (A) 3.9 21:46:39 10° SSW 21:52:27 74° SE 21:59:11 10° NE
NOSS 3-3 (C) 3.9 21:46:45 10° SSW 21:52:34 74° SE 21:59:17 10° NE
ATLAS 2AS CENTAUR R/B 3.2 21:47:25 10° NW 21:54:56 62° NE 22:00:32 17° ESE
Meteor 2-12 Rocket 4.5 21:49:19 10° N 21:55:25 71° ENE 21:59:02 25° SSE
Nadezhda 1 Rocket 4.3 21:51:52 24° SSE 21:55:34 51° E 22:01:35 10° NNE
Cosmos 1743 4.1 21:52:20 10° N 21:55:37 26° ENE 21:56:52 22° E
BREEZE-M DEB (TANK) 2.4 21:56:40 10° W 21:57:58 29° WSW 21:57:58 29° WSW
Cosmos 1538 Rocket 4.2 21:55:35 10° NNW 22:00:56 68° WSW 22:03:56 26° S
BREEZE-M DEB (TANK) 3.3 21:52:42 10° WSW 22:01:50 87° NNW 22:04:40 10° ENE
USA 305 2.8 21:58:38 10° WNW 22:02:53 71° SSW 22:04:40 33° SE
USA 215 3.6 21:56:26 10° E 22:02:54 65° NNE 22:09:23 10° WNW
Iridium 4 Rocket 3.8 22:01:47 20° S 22:05:57 81° W 22:11:55 10° N
Cosmos 1610 Rocket 4.5 22:00:59 10° N 22:07:10 75° E 22:10:38 27° SSE
Resurs 01 Rocket 4.4 22:11:31 10° W 22:12:43 11° W 22:13:54 10° WNW
Cosmos 158 Rocket 3.8 22:08:21 10° NNW 22:13:15 82° WSW 22:15:28 33° SSE
Cosmos 1733 Rocket 4.2 22:10:39 10° N 22:14:33 31° ENE 22:16:02 25° ESE
SJ 16-02 1.3 22:15:14 30° S 22:17:21 74° ESE 22:21:49 10° NNE
Cosmos 1680 Rocket 3.7 22:13:34 10° NNW 22:18:54 67° ENE 22:21:27 31° SE
Cosmos 2228 Rocket 3.0 22:17:34 35° S 22:19:24 77° E 22:23:52 10° NNE
Cosmos 2341 Rocket 4.4 22:13:30 10° N 22:19:48 54° ENE 22:23:08 28° SE
Meteor 1-27 Rocket 3.8 22:18:37 29° S 22:21:41 67° E 22:27:34 10° NNE
USA 306 3.0 22:17:46 10° WNW 22:21:58 58° SSW 22:23:05 42° SSE
COSMOS 2406 3.9 22:17:32 10° NW 22:22:53 43° WSW 22:25:47 24° SSW
Cosmos 1818 4.4 22:18:27 10° NW 22:23:47 48° NE 22:27:40 18° ESE
Cosmos 2082 Rocket 2.2 22:20:05 10° NNW 22:25:43 73° WSW 22:28:19 33° SSE
H-2A R/B 4.0 22:27:40 10° N 22:31:48 56° WNW 22:34:16 22° SW
CZ-4C R/B 3.6 22:25:18 10° NW 22:32:06 45° WSW 22:36:28 25° S
Gbstr 26 Del rocket 4.1 22:25:42 10° W 22:33:18 90° ESE 22:39:32 10° E
BREEZE-M R/B 4.2 22:31:21 10° WSW 22:31:52 15° WSW 22:31:52 15° WSW
ERS-1 Rocket 4.5 22:30:51 15° SW 22:34:05 29° W 22:38:26 10° NW
ERBS 3.6 22:31:48 10° NW 22:34:56 37° NNE 22:37:05 17° ENE
SPOT 5 4.5 22:32:05 15° SW 22:35:22 29° W 22:39:56 10° NNW
Cosmos 1271 Rocket 3.3 22:35:27 28° SW 22:37:21 55° WNW 22:41:20 10° N
Cosmos 2218 Rocket 4.5 22:32:57 10° N 22:39:01 50° ENE 22:42:06 28° SE
Meteor 1-11 Rocket 4.3 22:36:13 10° NNW 22:42:04 55° W 22:45:14 27° SSW
Terra 3.2 22:41:15 19° SW 22:43:44 30° W 22:47:58 10° NNW
Okean 1 4.0 22:46:34 38° ESE 22:46:58 39° E 22:50:42 10° NNE
USA 307 3.3 22:43:10 10° WNW 22:47:15 44° SW 22:47:31 44° SSW
Cosmos 1340 Rocket 2.8 22:44:38 10° NNW 22:48:44 77° W 22:49:40 52° S
Cosmos 2278 Rocket 2.6 22:47:29 10° SW 22:53:00 62° NW 22:58:40 10° NNE
Cosmos 923 Rocket 4.4 22:48:52 10° NNW 22:53:59 55° WSW 22:55:53 36° SSW
Cosmos 1544 3.3 22:51:10 10° NNW 22:54:42 55° W 22:55:12 49° SW
Spot 4 3.8 22:53:27 43° SSE 22:55:06 90° E 23:00:01 10° NNW
Cosmos 1515 3.8 22:55:28 53° ESE 22:55:43 55° E 22:59:26 10° NNE
Cosmos 1862 Rocket 4.0 22:57:00 42° ESE 22:57:41 46° E 23:01:49 10° NNE
Cosmos 1536 3.8 22:54:36 10° NNW 22:58:25 39° W 22:59:30 32° SW
Cosmos 1898 Rocket 3.6 22:57:39 41° SSE 22:59:18 60° ESE 23:04:34 10° NNE
USA 308 3.6 22:56:42 10° WNW 23:00:30 37° SW 23:00:30 37° SW
Cosmos 2084 4.4 22:56:53 10° WSW 23:00:57 48° NW 23:05:08 10° NE
Cosmos 2369 Rocket 3.5 23:03:27 23° ESE 23:04:14 23° ESE 23:08:35 10° NE
RESURS DK-1 4.3 23:03:44 10° NNW 23:07:15 25° NE 23:09:53 14° E
Gblst 52 Del rocket 4.4 23:00:52 10° W 23:07:55 85° SSW 23:14:00 10° ESE
Meteor 2-9 Rocket 4.3 23:02:27 10° N 23:08:20 78° ENE 23:10:35 39° SSE
SL-8 Rocket 4.0 23:02:25 10° N 23:08:48 89° E 23:11:34 37° S
COBE Rocket 4.3 23:07:05 36° SE 23:08:54 57° ENE 23:13:56 10° N
Cosmos 1975 3.0 23:07:39 10° N 23:11:36 58° ENE 23:12:11 51° ESE
Cosmos 2084 Rocket 3.4 23:07:52 10° NW 23:12:08 81° NE 23:13:19 48° ESE
Cosmos 1943 Rocket 2.6 23:11:54 39° SSE 23:13:16 46° ESE 23:18:37 10° NE
SAR-Lupe-2 4.2 23:11:16 10° NNE 23:14:31 41° E 23:14:31 41° E
ALOS 2 2.5 23:16:05 54° SSE 23:17:05 85° ENE 23:21:30 10° NNW
Cosmos 44 3.5 23:13:49 10° NW 23:19:15 68° SW 23:20:48 45° SSE
DNEPR-1 R/B 4.5 23:19:56 40° SSE 23:20:51 44° ESE 23:25:34 10° NE
Cosmos 1707 Rocket 3.9 23:20:01 41° SW 23:21:19 60° WNW 23:25:43 10° N
Meteor 2-4 Rocket 4.3 23:20:31 35° SE 23:22:20 45° E 23:27:42 10° NNE
Cosmos 990 Rocket 4.0 23:20:01 34° SW 23:22:20 79° WNW 23:27:38 10° NNE
Okean 1-7 3.9 23:30:15 34° ESE 23:30:46 35° E 23:34:40 10° NNE
Cosmos 1743 3.9 23:27:59 10° NNW 23:31:24 30° W 23:31:55 29° WSW
Cosmos 372 Rocket 4.3 23:30:36 42° SE 23:31:34 47° ESE 23:36:27 10° NE
Cosmos 1238 Rocket 4.2 23:28:03 10° NNW 23:34:22 59° W 23:36:39 36° SSW
Meteor 1-18 Rocket 4.1 23:33:04 42° S 23:35:04 81° E 23:40:42 10° NNE
SL-24 R/B - RUBIN 2 4.2 23:31:14 10° NW 23:36:35 49° WSW 23:37:29 44° SSW
Cosmos 864 Rocket 4.5 23:31:23 10° NNW 23:37:33 73° W 23:39:57 39° S
SeaSat 1 3.2 23:33:12 10° NE 23:37:44 35° ESE 23:38:19 34° SE
Cosmos 2242 Rocket 3.9 23:40:22 45° SE 23:41:03 49° E 23:45:22 10° NNE
ATLAS 2AS CENTAUR R/B 3.2 23:38:50 10° NW 23:45:44 44° WSW 23:47:56 34° SSW
USA 215 3.2 23:42:20 28° SE 23:45:57 68° SW 23:52:30 10° WNW
Cosmos 2297 3.7 23:45:51 34° SW 23:48:26 81° WNW 23:54:09 10° NNE
Cosmos 1733 Rocket 4.2 23:48:30 10° NNW 23:52:19 31° W 23:53:07 29° WSW
SJ 16-02 3.8 23:53:18 10° W 23:56:29 19° NW 23:59:40 10° N
